Location: Foudgum
(53.3452°N, 5.9385°E)
Time: 13:20:40
(UTC+00:00)

Daily predictions for brighter satellites

Satellite Brightness Start Highest point End
(mag) Time Altitude Azimuth Time Altitude Azimuth Time Altitude Azimuth
SPOT 5 2.7 20:50:55 10° SSE 20:55:17 87° WSW 20:59:38 10° NNW
Cosmos 2084 Rocket 3.4 20:51:49 10° NW 20:55:40 67° SW 20:59:40 10° SE
RESURS DK-1 3.5 20:52:29 10° NW 20:56:20 38° WSW 21:00:10 10° S
Cosmos 1703 3.2 20:53:48 10° S 20:57:38 78° E 21:01:31 10° NNE
CZ-4B R/B 2.6 20:57:47 10° N 21:00:28 37° WNW 21:03:10 10° SW
Cosmos 1452 Rocket 3.5 20:55:18 10° SSW 21:00:35 86° ESE 21:05:53 10° NNE
Cosmos 1833 Rocket 2.8 20:55:18 10° SSW 21:00:48 59° ESE 21:06:19 10° NE
Terra 1.9 20:57:13 10° SSE 21:01:58 78° ENE 21:06:46 10° NNW
FALCON 9 DEB 3.0 21:02:23 10° W 21:05:38 69° SSW 21:08:53 10° ESE
Helios 1A Rocket 3.1 21:02:00 10° S 21:06:04 73° WSW 21:10:12 10° NNW
Cosmos 1110 Rocket 4.1 21:01:21 10° SSW 21:06:34 67° ESE 21:11:52 10° NNE
Cosmos 2322 Rocket 3.8 21:02:28 10° NNW 21:07:21 29° NE 21:12:14 10° E
ERS-1 Rocket 3.1 21:03:32 10° SSE 21:08:34 78° WSW 21:13:38 10° NNW
Cosmos 1892 Rocket 4.3 21:04:46 10° SSE 21:08:47 36° E 21:12:47 10° NNE
Resurs 01 Rocket 3.9 21:06:00 10° SW 21:09:26 21° W 21:12:52 10° NW
Cosmos 2228 3.3 21:05:50 10° NNW 21:10:03 64° W 21:14:14 10° S
Cosmos 2058 Rocket 3.7 21:06:44 10° N 21:11:00 45° ENE 21:15:16 10° SSE
Cosmos 2184 Rocket 4.5 21:07:45 10° NNW 21:13:51 61° W 21:19:57 10° S
Cosmos 1825 4.1 21:15:20 10° SE 21:17:43 16° E 21:20:06 10° NE
Cosmos 2278 4.0 21:12:55 10° NNW 21:18:39 65° NE 21:24:19 10° SE
Cosmos 1408 3.5 21:16:15 10° SSE 21:19:12 29° E 21:22:15 10° NNE
Cosmos 968 Rocket 3.5 21:16:13 10° NNW 21:21:28 89° WSW 21:26:36 11° SSE
Cosmos 2333 Rocket 4.3 21:17:29 10° NNW 21:21:52 22° NNE 21:26:15 10° ENE
Cosmos 1328 3.8 21:22:55 10° S 21:26:55 73° E 21:30:54 10° NNE
USA 276 2.4 21:24:51 10° WSW 21:27:46 42° S 21:30:40 10° ESE
SJ 16-02 3.1 21:27:03 10° N 21:30:42 24° NE 21:34:19 10° ESE
Cosmos 1867 3.7 21:25:58 10° NW 21:31:26 70° SW 21:36:30 12° SSE
Cosmos 2082 Rocket 2.5 21:29:12 10° S 21:34:38 48° ESE 21:40:06 10° NE
USA 267 4.1 21:30:19 10° ENE 21:35:45 27° SE 21:41:08 10° S
Cosmos 1606 Rocket 4.2 21:34:31 10° NNW 21:38:43 51° W 21:42:56 10° S
GP-B 3.4 21:35:19 10° N 21:39:42 54° E 21:43:34 13° SSE
ARIANE 5 R/B 2.9 21:35:47 10° S 21:40:12 64° WSW 21:44:37 10° NNW
Cosmos 2341 Rocket 4.1 21:34:39 10° N 21:41:02 83° E 21:47:01 11° SSE
Cosmos 2360 Rocket 3.6 21:38:20 10° NNW 21:43:26 32° NE 21:48:30 10° ESE
SAR-Lupe-4 4.2 21:40:39 10° NNE 21:44:02 38° E 21:46:46 14° SSE
Cosmos 192 4.3 21:44:52 10° SSW 21:49:45 78° ESE 21:54:41 10° NNE
SAR-Lupe-1 4.1 21:57:06 10° NNE 22:00:40 65° ESE 22:03:39 14° S
Okean 1-7 Rocket 4.0 21:58:40 15° SSE 22:02:12 49° E 22:06:34 10° NNE
Cosmos 1892 2.6 22:02:06 13° S 22:05:25 83° ESE 22:09:13 10° NNE
USA 234 3.3 22:06:14 10° ESE 22:12:50 84° SSW 22:19:27 10° WNW
Cosmos 2181 Rocket 4.0 22:07:21 12° S 22:13:03 74° E 22:19:19 10° NNE
Cosmos 1633 3.6 22:12:09 18° SE 22:14:05 29° E 22:17:09 10° NNE
Cosmos 1980 Rocket 3.2 22:11:03 10° NW 22:16:14 37° WSW 22:20:52 13° S
Cosmos 1821 Rocket 4.3 22:10:09 10° N 22:16:21 58° ENE 22:21:23 15° SSE
SL-16 R/B 2.3 22:10:51 10° NNW 22:16:35 79° ENE 22:21:23 15° SE
Cosmos 1486 Rocket 4.1 22:11:47 10° NNW 22:16:59 71° WSW 22:21:05 17° SSE
Cosmos 1812 Rocket 3.8 22:14:26 10° N 22:18:53 62° ENE 22:22:08 18° SSE
Cosmos 1992 Rocket 4.1 22:15:18 13° S 22:19:58 59° ESE 22:25:08 10° NNE
Cosmos 2219 Rocket 3.9 22:15:32 10° NNW 22:20:30 30° NE 22:25:26 10° E
Cosmos-2242 3.2 22:24:01 10° N 22:28:14 60° ENE 22:31:12 19° SSE
COSMOS 2406 3.7 22:23:10 10° SW 22:28:53 63° NW 22:34:37 10° NNE
Cosmos 1869 3.6 22:28:33 10° NNW 22:32:23 57° W 22:35:09 18° S
ATLAS 5 CENTAUR R/B 1.5 22:29:23 14° SSW 22:32:25 48° SE 22:36:34 10° NE
Cosmos 807 4.1 22:29:38 10° NNW 22:32:47 81° W 22:34:24 24° S
Cosmos 1602 Rocket 3.7 22:32:11 19° S 22:35:10 60° E 22:39:26 10° NNE
In-Cosmos 22 Rocket 4.2 22:30:23 12° SSW 22:35:38 81° WNW 22:41:05 10° NNE
ERS-2 4.0 22:33:42 10° NE 22:36:07 17° E 22:37:40 14° ESE
Terra 4.0 22:37:08 10° SW 22:40:18 18° W 22:43:30 10° NW
Nadezhda 3 Rocket 4.3 22:36:22 17° SSE 22:40:56 52° E 22:46:54 10° NNE
ASTEX 1 4.2 22:36:07 10° N 22:40:57 50° WNW 22:45:46 10° SSW
FALCON 9 DEB 4.3 22:38:51 10° W 22:41:33 24° SSW 22:42:17 22° S
ALOS 2 2.7 22:39:48 19° SSE 22:42:54 74° ENE 22:47:19 10° NNW
Cosmos 1833 Rocket 4.3 22:39:53 10° WSW 22:45:02 36° NW 22:50:14 10° NNE
Cosmos 1354 Rocket 4.0 22:39:55 10° NNW 22:45:15 80° WSW 22:49:06 19° SSE
BREEZE-M DEB (TANK) 3.8 22:45:09 10° W 22:48:22 54° S 22:59:49 10° ESE
ADEOS Rocket 3.6 22:45:43 17° SSE 22:51:49 87° ENE 22:59:40 10° NNW
Cosmos 2322 Rocket 2.2 22:46:21 10° NNW 22:52:03 82° WSW 22:56:24 18° SSE
Cosmos 1825 2.7 22:49:40 15° SSW 22:52:39 53° WNW 22:56:21 10° N
Cosmos 1408 4.5 22:51:02 10° SW 22:53:54 24° WNW 22:56:47 10° NNW
Cosmos 1503 Rocket 4.3 22:49:45 10° NNW 22:54:58 58° WSW 22:58:35 19° S
Cosmos 1626 Rocket 4.0 22:54:44 14° SSW 22:58:17 59° WNW 23:02:38 10° N
Cosmos 1777 Rocket 4.0 22:57:45 10° NNW 23:03:05 84° WSW 23:06:53 19° SSE
USA 276 3.4 23:00:40 10° WSW 23:02:50 22° SSW 23:02:50 22° SSW
Cosmos 2333 Rocket 2.6 23:01:34 10° NNW 23:07:20 62° NE 23:12:51 11° SE
SJ 16-02 1.6 23:05:14 10° NNW 23:09:37 59° WSW 23:12:19 22° S
Cosmos 1825 Rocket 3.7 23:08:17 22° S 23:10:56 61° E 23:15:14 10° NNE
Gbstr 26 Del rocket 4.2 23:11:09 22° SSE 23:12:24 24° SE 23:16:30 10° E
CENTAUR R/B 4.4 23:10:40 10° ESE 23:12:36 12° E 23:14:38 10° E
Cosmos 1340 Rocket 3.4 23:13:04 22° SSE 23:15:10 42° E 23:18:57 10° NNE
H-2A R/B 3.5 23:13:53 10° NNE 23:18:07 89° WNW 23:20:55 21° SSW
Cosmos 2082 Rocket 3.4 23:13:26 10° WSW 23:18:51 42° NW 23:24:17 10° NNE
USA 267 3.2 23:13:01 10° ENE 23:19:33 70° SSE 23:26:05 10° SW
Cosmos 2221 2.8 23:21:02 10° N 23:25:22 61° ENE 23:28:17 20° SSE
Cosmos 1606 3.3 23:22:22 10° NNW 23:26:07 47° W 23:28:16 22° SSW
Cosmos 2360 Rocket 2.2 23:22:15 10° NW 23:27:55 70° WSW 23:32:00 19° SSE
Cosmos 1842 Rocket 4.2 23:23:38 10° N 23:28:02 51° ENE 23:31:14 17° SE
Cosmos 1934 Rocket 3.9 23:22:28 10° N 23:28:35 88° WSW 23:33:06 19° S
Cosmos 2058 2.9 23:26:08 23° S 23:28:42 84° ESE 23:32:56 10° NNE
Cosmos 2333 4.3 23:26:39 10° NNW 23:32:29 87° ENE 23:37:21 15° SSE
Resurs 1-4 Rocket 4.5 23:31:57 10° ENE 23:33:19 11° E 23:34:42 10° E
Cosmos 1782 4.1 23:30:32 10° N 23:34:11 33° ENE 23:37:13 13° SE
COSMOS 2455 4.2 23:36:08 10° NW 23:41:49 40° NE 23:47:28 10° ESE
CZ-2D R/B 4.4 23:40:05 10° ENE 23:42:04 12° E 23:44:04 10° ESE
Cosmos 44 3.8 23:41:21 22° S 23:43:40 38° ESE 23:47:48 10° NE
Cosmos 1633 4.3 23:45:56 11° WSW 23:48:35 24° WNW 23:51:30 10° NNW
Cosmos 2237 Rocket 3.7 23:47:13 10° NNW 23:52:27 35° NE 23:57:37 10° ESE
COSMOS 2428 3.0 23:48:21 10° NNW 23:54:04 70° NE 23:59:47 10° SE
